Weather History for Poughkeepsie, NY

Change the Weather History Date:

Friday, February 15, 2013

  Actual Average Record
Temperature  
Mean Temperature 39 °F 28 °F  
Max Temperature 52 °F 39 °F 66 °F (1954)
Min Temperature 25 °F 18 °F -4 °F (1958)
Degree Days  
Heating Degree Days 26 36  
Month to date heating degree days 553 565  
Since 1 July heating degree days 3704 4117  
Cooling Degree Days 0 0  
Month to date cooling degree days 0 0  
Year to date cooling degree days 0 0  
Moisture  
Dew Point 26 °F    
Average Humidity 62    
Maximum Humidity 85    
Minimum Humidity 38    
Precipitation  
Precipitation T in 0.09 in 0.72 in (1953)
Month to date precipitation 0.61 1.39  
Year to date precipitation 2.66 4.47  
Sea Level Pressure  
Sea Level Pressure 29.94 in    
Wind  
Wind Speed 4 mph (WSW)    
Max Wind Speed 15 mph    
Max Gust Speed 20 mph    
Visibility 9 miles    
Events Rain    
T = Trace of Precipitation, MM = Missing Value Source: NWS Daily Summary

Daily Weather History Graph

Daily Weather History Graph

Search for Another Location

Airport:

Trip Planner

Search our weather history database for the weather conditions in past years. The results will help you decide how hot, cold, wet, or windy it might be!

Date:

Astronomy

Feb. 15, 2013 Rise Set
Actual Time 6:50 AM EST 5:29 PM EST
Civil Twilight 6:22 AM EST 5:57 PM EST
Nautical Twilight 5:49 AM EST 6:30 PM EST
Astronomical Twilight 5:17 AM EST 7:02 PM EST
Moon 9:19 AM EST (2/15) 11:33 PM EST (2/15)
Length of Visible Light 11h 35m
Length of Day
10h 38m
Waxing Crescent, 30% of the Moon is Illuminated
Feb 15
Waxing Crescent
Feb 17
First Quarter
Feb 25
Full
Mar 4
Last Quarter
Mar 11
New

Hourly Weather History & Observations

Time (EST) Temp. Windchill Dew Point Humidity Pressure Visibility Wind Dir Wind Speed Gust Speed Precip Events Conditions
12:53 AM 28.0 °F - 23.0 °F 81% 29.96 in 7.0 mi Calm Calm - N/A   Overcast
1:53 AM 30.0 °F - 25.0 °F 82% 29.96 in 6.0 mi Calm Calm - N/A   Haze
2:53 AM 30.9 °F - 26.1 °F 82% 29.95 in 7.0 mi Calm Calm - N/A   Overcast
3:53 AM 30.0 °F - 25.0 °F 82% 29.95 in 7.0 mi Calm Calm - N/A   Mostly Cloudy
4:53 AM 28.9 °F - 25.0 °F 85% 29.95 in 7.0 mi Calm Calm - N/A   Partly Cloudy
5:53 AM 28.0 °F 24.2 °F 24.1 °F 85% 29.95 in 6.0 mi East 3.5 mph - N/A   Clear
6:53 AM 26.1 °F - 23.0 °F 88% 29.95 in 7.0 mi Calm Calm - N/A   Clear
7:53 AM 28.0 °F - 24.1 °F 85% 29.97 in 10.0 mi Calm Calm - N/A   Clear
8:53 AM 36.0 °F - 27.0 °F 70% 29.98 in 10.0 mi Calm Calm - N/A   Mostly Cloudy
9:53 AM 42.1 °F 38.4 °F 28.9 °F 60% 29.98 in 10.0 mi SW 5.8 mph - N/A   Clear
10:53 AM 45.0 °F 41.8 °F 28.9 °F 53% 29.96 in 9.0 mi Variable 5.8 mph - N/A   Clear
11:53 AM 46.9 °F - 28.9 °F 50% 29.94 in 10.0 mi SW 6.9 mph - N/A   Clear
12:53 PM 48.9 °F - 28.0 °F 44% 29.91 in 10.0 mi WSW 11.5 mph 18.4 mph N/A   Clear
1:53 PM 51.1 °F - 27.0 °F 39% 29.89 in 10.0 mi SSW 8.1 mph - N/A   Clear
2:53 PM 52.0 °F - 27.0 °F 38% 29.88 in 10.0 mi SSW 6.9 mph - N/A   Clear
3:53 PM 52.0 °F - 26.1 °F 37% 29.88 in 10.0 mi SW 9.2 mph - N/A   Clear
4:53 PM 50.0 °F - 27.0 °F 41% 29.89 in 10.0 mi SW 5.8 mph - N/A   Clear
5:53 PM 46.9 °F - 24.1 °F 41% 29.91 in 10.0 mi West 5.8 mph - N/A   Scattered Clouds
6:53 PM 46.0 °F 44.8 °F 23.0 °F 40% 29.92 in 10.0 mi SW 3.5 mph - N/A   Mostly Cloudy
7:53 PM 39.0 °F - 28.0 °F 65% 29.91 in 10.0 mi Calm Calm - N/A   Overcast
8:53 PM 37.9 °F - 28.0 °F 68% 29.92 in 10.0 mi Calm Calm - N/A   Overcast
9:53 PM 41.0 °F 37.1 °F 26.1 °F 55% 29.93 in 10.0 mi NW 5.8 mph - N/A   Overcast
10:53 PM 39.9 °F 35.8 °F 28.9 °F 65% 29.96 in 10.0 mi West 5.8 mph - 0.00 in   Overcast
11:21 PM 39.2 °F 35.9 °F 28.4 °F 65% 29.97 in 10.0 mi WNW 4.6 mph - 0.00 in Rain Light Rain
11:37 PM 39.2 °F 35.9 °F 28.4 °F 65% 29.98 in 10.0 mi North 4.6 mph - 0.00 in   Overcast
11:53 PM 37.9 °F 30.9 °F 28.9 °F 70% 29.97 in 10.0 mi NNE 10.4 mph - 0.00 in   Overcast